FW3680 Weather Reports


time (UTC)temp
F
wind
direction
speed
knots
gust
knots
rain 1hr
in
rain 24hr
in
rain mn
in
humidity
%
barometer
mb
20260510190020 82 223 0.9 6.1 0.00 0.00 0.00 35 970.7
20260510184514 79 330 0.9 2.6 0.00 0.00 0.00 41 970.8
20260510183014 79 344 1.7 4.3 0.00 0.00 0.00 42 970.9
20260510181513 80 325 1.7 5.2 0.00 0.00 0.00 38 971.1
20260510180016 79 252 1.7 8.7 0.00 0.00 0.00 45 971.2
20260510174512 81 163 1.7 7.0 0.00 0.00 0.00 39 971.3
20260510173010 81 239 0.9 5.2 0.00 0.00 0.00 43 971.4
20260510171512 80 136 1.7 5.2 0.00 0.00 0.00 40 971.4
20260510170008 79 290 1.7 9.6 0.00 0.00 0.00 41 971.6
20260510164511 77 296 0.9 5.2 0.00 0.00 0.00 45 971.6
20260510163007 80 355 1.7 7.0 0.00 0.00 0.00 39 971.9
20260510161505 78 267 1.7 3.5 0.00 0.00 0.00 43 972.0
20260510160132 77 271 0.9 4.3 0.00 0.00 0.00 44 971.9
20260510154607 75 325 0.9 8.7 0.00 0.00 0.00 47 971.9
20260510153058 74 327 2.6 10.4 0.00 0.00 0.00 45 972.1
20260510151601 75 312 5.2 13.0 0.00 0.00 0.00 45 972.3
20260510150059 75 53 1.7 11.3 0.00 0.00 0.00 48 972.2
20260510144615 75 339 2.6 5.2 0.00 0.00 0.00 47 972.2
20260510143053 73 306 2.6 7.0 0.00 0.00 0.00 51 972.2
20260510141548 73 288 3.5 8.7 0.00 0.00 0.00 53 972.2
20260510140045 72 296 1.7 6.1 0.00 0.00 0.00 58 972.3
20260510134549 71 284 1.7 6.1 0.00 0.00 0.00 58 972.3
20260510133042 69 307 0.9 5.2 0.00 0.00 0.00 63 972.2
20260510131538 68 317 2.6 7.0 0.00 0.00 0.00 67 972.3
20260510130031 66 65 0.0 2.6 0.00 0.00 0.00 78 972.2
20260510124527 64 65 0.0 1.7 0.00 0.00 0.00 83 972.1
20260510123029 61 52 0.9 1.7 0.00 0.00 0.00 85 971.9
20260510121521 59 327 0.0 0.9 0.00 0.00 0.00 87 971.6
20260510120019 56 281 0.0 0.0 0.00 0.00 0.00 90 971.5
20260510114513 54 355 0.0 0.0 0.00 0.00 0.00 93 971.3
20260510113018 51 146 0.0 0.0 0.00 0.00 0.00 96 970.9
20260510111508 48 173 0.0 0.0 0.00 0.00 0.00 96 970.6
20260510110022 47 194 0.0 0.0 0.00 0.00 0.00 96 970.5
20260510104507 46 194 0.0 0.9 0.00 0.00 0.00 97 970.4
20260510103004 45 360 0.9 2.6 0.00 0.00 0.00 96 970.1
20260510101502 46 360 0.0 1.7 0.00 0.00 0.00 96 970.0
20260510100101 46 360 0.0 1.7 0.00 0.00 0.00 96 970.0
20260510094611 46 360 0.0 1.7 0.00 0.00 0.00 95 969.8
20260510093119 47 159 0.0 2.6 0.00 0.00 0.00 95 969.8
20260510091559 47 158 0.9 2.6 0.00 0.00 0.00 96 969.6
20260510090055 47 360 0.0 3.5 0.00 0.00 0.00 95 969.5
20260510084557 48 360 0.0 0.9 0.00 0.00 0.00 94 969.2
20260510083054 48 360 0.0 2.6 0.00 0.00 0.00 93 969.3
20260510081549 49 257 0.0 1.7 0.00 0.00 0.00 92 969.1
20260510080048 51 257 0.0 0.0 0.00 0.00 0.00 89 968.8
20260510074547 53 257 0.0 1.7 0.00 0.00 0.00 84 968.7
20260510073048 56 258 0.9 6.1 0.00 0.00 0.00 84 968.7
20260510071550 52 273 2.6 4.3 0.00 0.00 0.00 95 968.5
20260510070042 49 360 0.9 2.6 0.00 0.00 0.00 96 968.5
20260510064537 49 360 0.0 0.0 0.00 0.00 0.00 95 968.8
20260510063036 49 360 0.0 0.0 0.00 0.00 0.00 94 968.8
20260510061534 49 360 0.0 0.0 0.00 0.00 0.00 94 969.0
20260510060032 50 360 0.0 0.0 0.00 0.00 0.00 94 968.9
20260510054530 50 360 0.0 0.0 0.00 0.00 0.00 94 969.0
20260510053047 51 360 0.0 0.0 0.00 0.00 0.00 93 968.9
20260510051526 51 360 0.0 0.0 0.00 0.00 0.00 93 969.2
20260510050022 52 360 0.0 0.0 0.00 0.00 0.00 92 969.2
20260510044520 52 360 0.0 0.0 0.00 0.00 0.00 93 969.0
20260510043034 53 360 0.0 0.0 0.00 0.00 0.00 92 969.1
20260510041615 54 360 0.0 0.9 0.00 0.00 0.00 92 969.1
20260510040017 55 360 0.0 0.0 0.00 0.00 0.00 91 969.1
20260510034510 55 232 0.0 1.7 0.00 0.00 0.00 91 969.1
20260510033010 56 232 0.0 0.9 0.00 0.00 0.00 91 969.1
20260510031511 57 232 0.0 0.0 0.00 0.00 0.00 90 969.0
20260510030010 57 232 0.0 1.7 0.00 0.00 0.00 90 969.0
20260510024508 58 232 0.0 0.0 0.00 0.00 0.00 88 968.7
20260510023008 59 232 0.0 0.0 0.00 0.00 0.00 86 968.7
20260510021521 60 232 0.0 0.9 0.00 0.00 0.00 85 968.4
20260510020006 61 232 0.0 1.7 0.00 0.00 0.00 85 968.3
20260510014506 61 232 0.0 1.7 0.00 0.00 0.00 84 968.0
20260510013005 62 232 0.0 0.0 0.00 0.00 0.00 79 967.9
20260510011504 64 232 0.0 0.0 0.00 0.00 0.00 77 967.6
20260510010004 65 232 0.0 0.0 0.00 0.00 0.00 73 967.3
20260510004503 66 232 0.0 0.9 0.00 0.00 0.00 68 966.9
20260510003003 68 232 0.0 2.6 0.00 0.00 0.00 65 966.7
20260510001502 70 179 0.0 0.9 0.00 0.00 0.00 57 966.8
20260510000001 72 254 0.0 0.9 0.00 0.00 0.00 54 966.6
20260509234601 73 34 0.0 2.6 0.00 0.00 0.00 52 966.3
20260509233100 73 320 0.0 3.5 0.00 0.00 0.00 50 966.3
20260509231601 74 280 0.9 3.5 0.00 0.00 0.00 49 966.2
20260509230059 75 344 4.3 8.7 0.00 0.00 0.00 47 965.8
20260509224559 76 355 0.9 2.6 0.00 0.00 0.00 59 965.7
20260509223102 77 245 0.9 3.5 0.00 0.00 0.00 58 965.8
20260509221557 75 188 0.0 3.5 0.00 0.00 0.00 61 965.6
20260509220101 76 227 1.7 5.2 0.00 0.00 0.00 57 965.7
20260509214624 78 224 0.0 5.2 0.00 0.00 0.00 53 965.6
20260509213054 79 217 3.5 7.0 0.00 0.00 0.00 52 965.2
20260509211552 78 298 0.9 7.0 0.00 0.00 0.00 50 965.2
20260509210052 78 300 1.7 5.2 0.00 0.00 0.00 50 965.2
20260509204547 77 228 1.7 4.3 0.00 0.00 0.00 54 965.2
20260509203058 77 199 0.9 4.3 0.00 0.00 0.00 56 965.2
20260509201543 77 148 2.6 7.0 0.00 0.00 0.00 54 965.3
20260509200042 75 160 1.7 7.0 0.00 0.00 0.00 57 965.4
20260509194541 74 223 2.6 6.1 0.00 0.00 0.00 58 965.5
20260509193040 75 146 1.7 5.2 0.00 0.00 0.00 57 965.7
20260509191554 76 275 1.7 5.2 0.00 0.00 0.00 59 965.7